Location: Buchloe
(48.0161°N, 10.7316°E)
Time: 03:34:37
(UTC+02:00)

ISS - Pass Details

Date: 23 May 2018
Orbit: 402 x 407 km, 51.6° (Epoch: 23 May)

Event Time Altitude Azimuth Distance (km) Brightness Sun altitude
Rises 02:12:15 0° 291° (WNW) 2,320 0.1 -20.2°
Reaches altitude 10° 02:14:21 10° 295° (WNW) 1,458 -0.9 -20.1°
Maximum altitude 02:17:36 64° 17° (NNE) 451 -3.5 -20.0°
Drops below altitude 10° 02:20:50 10° 100° (E) 1,454 -1.0 -19.8°
Sets 02:22:55 0° 104° (ESE) 2,311 0.1 -19.7°
